Location: Hiram
(41.3130°N, 81.1440°W)
Time: 07:57:16
(UTC-04:00)

Amateur Radio Satellites - All Passes

Search period start: 01 July 2015 07:27
Search period end: 02 July 2015 07:27
Location: Hiram, 41.3130°N, 81.1440°W

Satellite Date Start Highest point End Downlink Frequencies (MHz)
Time Altitude Azimuth
CUSAT 1 01 Jul 07:38:15 07:41:22 14° 91° (E) 07:44:31 437.405
CUTE-I 01 Jul 07:48:22 07:53:45 77° 102° (ESE) 07:59:07 437.470
CUBESAT XI-V 01 Jul 07:50:48 07:54:39 24° 267° (W) 07:58:26 437.345
M-CUBED/EXP-1 PRIME 01 Jul 07:53:02 07:54:50 14° 62° (ENE) 07:56:46 437.505
PRISM 01 Jul 08:06:39 08:10:35 40° 262° (W) 08:14:32 437.425
BEESAT 3 01 Jul 08:07:29 08:10:29 21° 113° (ESE) 08:13:36 437.485
DANDE 01 Jul 08:12:50 08:18:31 24° 92° (E) 08:23:33 436.750
BEESAT 2 01 Jul 08:14:23 08:17:16 19° 112° (ESE) 08:20:18 435.950
Cubesat XI-IV 01 Jul 08:21:31 08:26:46 54° 288° (WNW) 08:31:57 437.490
GONETS M04 01 Jul 08:27:14 08:31:14 15° 78° (ENE) 08:35:53
Cosmos 2504 01 Jul 08:39:13 08:45:03 25° 293° (WNW) 08:50:39 435.465 / 435.565
GOMX 1 01 Jul 08:49:46 08:52:42 19° 91° (E) 08:55:42 467.674
STRAND 1 01 Jul 08:52:17 08:55:58 19° 269° (W) 08:59:29 437.568
BRITE-PL 01 Jul 08:54:20 08:58:24 36° 96° (E) 09:02:18 437.365/2234.400
AUBIESAT-1 01 Jul 08:55:24 08:58:42 79° 71° (ENE) 09:02:05 437.475
AIST 2 01 Jul 09:07:56 09:10:51 19° 112° (ESE) 09:13:52 435.215
O/OREOS (USA 219) 01 Jul 09:08:47 09:13:15 80° 293° (WNW) 09:17:44 437.305
CUSAT 1 01 Jul 09:16:45 09:23:51 85° 278° (W) 09:29:17 437.405
HO-68 01 Jul 09:22:54 09:29:16 35° 96° (E) 09:35:44 435.675
M-CUBED/EXP-1 PRIME 01 Jul 09:26:31 09:29:28 30° 258° (WSW) 09:32:28 437.505
CINEMA 3 01 Jul 09:28:48 09:30:46 13° 90° (E) 09:32:58 145.822/145.860
CUTE-I 01 Jul 09:30:10 09:33:15 15° 299° (WNW) 09:36:06 437.470
SEEDS 01 Jul 09:32:53 09:36:25 26° 94° (E) 09:40:01 437.485
VERMONT LUNAR 01 Jul 09:36:39 09:39:10 22° 155° (SSE) 09:41:43 437.305
BEESAT 3 01 Jul 09:44:25 09:48:14 37° 309° (NW) 09:52:04 437.485
RS-15 01 Jul 09:44:32 09:53:27 25° 19° (NNE) 10:02:51 29.354- 29.394
BEESAT 2 01 Jul 09:51:12 09:55:05 40° 308° (NW) 09:59:01 435.950
DOVE 4 01 Jul 09:51:16 09:55:24 56° 100° (E) 09:59:27 437.250
AAUSAT CUBESAT 2 01 Jul 09:53:23 09:57:03 29° 95° (E) 10:00:46 437.432
DANDE 01 Jul 09:53:57 10:01:36 61° 282° (WNW) 10:07:33 436.750
UWE-3 01 Jul 10:04:51 10:06:40 13° 89° (E) 10:08:43 435.000/436.395/437.385
ANTELSAT 01 Jul 10:07:05 10:09:54 18° 67° (ENE) 10:12:50 437.575/2403.000
CUTE 1.7 + AOD 2 01 Jul 10:13:42 10:18:00 87° 283° (WNW) 10:22:17 437.475
COMPASS 1 01 Jul 10:15:49 10:20:01 63° 100° (E) 10:24:13 437.405
CANX-2 01 Jul 10:16:29 10:20:46 73° 284° (WNW) 10:25:02 2200.000
GONETS M04 01 Jul 10:18:04 10:26:51 80° 96° (E) 10:35:38
TIGRISAT 01 Jul 10:20:32 10:23:54 23° 69° (ENE) 10:27:20 435.000
GOMX 1 01 Jul 10:27:10 10:31:03 34° 289° (WNW) 10:34:47 467.674
ISS 01 Jul 10:27:47 10:31:02 89° 314° (NW) 10:34:17 145.825
BRITE-PL 01 Jul 10:33:31 10:36:43 19° 294° (WNW) 10:39:41 437.365/2234.400
DELFI C3 01 Jul 10:34:48 10:38:12 26° 95° (E) 10:41:39 145.870
PHONESAT 2.4 01 Jul 10:38:49 10:41:02 16° 150° (SSE) 10:43:18 2401.200-2431.200
CUBEBUG 2 01 Jul 10:40:39 10:44:37 41° 98° (E) 10:48:40 437.445
AIST 2 01 Jul 10:45:02 10:49:08 44° 308° (NW) 10:53:15 435.215
DX 1 01 Jul 10:49:03 10:49:49 11° 88° (E) 10:50:53 434.975-435.025
QB50P1 01 Jul 10:53:48 10:57:09 23° 68° (ENE) 11:00:34 145.935-145.965
UNISAT 6 01 Jul 10:57:39 11:01:54 62° 75° (ENE) 11:06:08 437.425
ZACube-1 01 Jul 10:59:10 11:03:07 40° 98° (E) 11:07:10 437.345
CUSAT 1 01 Jul 11:04:09 11:06:52 12° 293° (WNW) 11:08:59 437.405
CINEMA 3 01 Jul 11:04:20 11:08:20 47° 287° (WNW) 11:12:21 145.822/145.860
Cosmos 2499 01 Jul 11:08:06 11:14:04 31° 87° (E) 11:20:12 435.465 / 435.565
SEEDS 01 Jul 11:08:34 11:12:11 27° 290° (WNW) 11:15:45 437.485
NANOSAT C BR1 01 Jul 11:08:58 11:12:46 33° 71° (ENE) 11:16:37 145.865
HO-68 01 Jul 11:10:25 11:17:10 46° 294° (WNW) 11:23:51 435.675
AISAT 01 Jul 11:11:13 11:11:58 11° 88° (E) 11:13:01 437.250
VERMONT LUNAR 01 Jul 11:12:43 11:15:49 65° 171° (S) 11:18:58 437.305
UKube-1 01 Jul 11:13:43 11:16:45 19° 92° (E) 11:19:54 .
Oscar 11 01 Jul 11:16:10 11:20:31 73° 284° (WNW) 11:24:50 145.826/435.025
DUCHIFAT 1 01 Jul 11:17:03 11:21:00 40° 72° (ENE) 11:24:59 145.980
POLYITAN 1 01 Jul 11:17:18 11:21:18 42° 72° (ENE) 11:25:20 437.675
AAUSAT CUBESAT 2 01 Jul 11:29:09 11:32:33 23° 291° (WNW) 11:35:51 437.432
ESTCUBE 1 01 Jul 11:29:32 11:30:44 11° 87° (E) 11:32:13 437.505/2401.250
DOVE 4 01 Jul 11:30:51 11:32:44 13° 296° (WNW) 11:34:26 437.250
FUNcube-1 01 Jul 11:36:51 11:41:03 75° 284° (WNW) 11:45:17 145.935
UWE-3 01 Jul 11:39:30 11:43:35 52° 286° (WNW) 11:47:42 435.000/436.395/437.385
CUBEBUG 1 01 Jul 11:40:10 11:41:39 12° 88° (E) 11:43:23 437.445
ANTELSAT 01 Jul 11:42:20 11:46:26 41° 262° (W) 11:50:29 437.575/2403.000
QB50P2 01 Jul 11:47:19 11:51:35 86° 257° (WSW) 11:55:51 145.880/145.840
HUMSAT D 01 Jul 11:48:06 11:52:13 63° 101° (E) 11:56:21 437.325/437.525
POPSAT HIP 1 01 Jul 11:49:01 11:53:16 85° 257° (WSW) 11:57:32 437.405
BUGSAT 1 01 Jul 11:50:06 11:54:18 63° 75° (ENE) 11:58:29 437.445
COMPASS 1 01 Jul 11:53:27 11:55:14 12° 296° (WNW) 11:56:49 437.405
TIGRISAT 01 Jul 11:56:43 12:00:34 30° 264° (W) 12:04:18 435.000
RS-15 01 Jul 11:57:34 12:09:03 60° 49° (NE) 12:21:03 29.354- 29.394
VELOX 1 01 Jul 11:59:03 12:03:07 35° 97° (E) 12:07:10 145.980
ISS 01 Jul 12:05:21 12:07:49 19° 343° (NNW) 12:10:15 145.825
DELFI C3 01 Jul 12:09:51 12:13:13 25° 290° (WNW) 12:16:30 145.870
PHONESAT 2.4 01 Jul 12:15:16 12:18:38 53° 165° (SSE) 12:22:02 2401.200-2431.200
GONETS M04 01 Jul 12:18:08 12:24:51 23° 297° (WNW) 12:31:14
CUBEBUG 2 01 Jul 12:18:18 12:21:04 17° 293° (WNW) 12:23:43 437.445
DX 1 01 Jul 12:22:17 12:26:37 68° 286° (WNW) 12:30:55 434.975-435.025
QB50P1 01 Jul 12:29:06 12:32:53 30° 264° (W) 12:36:37 145.935-145.965
ZACube-1 01 Jul 12:36:24 12:39:15 17° 293° (WNW) 12:41:57 437.345
50 SAT 01 Jul 12:36:42 12:40:34 66° 285° (WNW) 12:44:27 437.505
UNISAT 6 01 Jul 12:37:44 12:39:10 11° 272° (W) 12:40:22 437.425
AISAT 01 Jul 12:44:43 12:49:09 69° 285° (WNW) 12:53:30 437.250
NANOSAT C BR1 01 Jul 12:45:27 12:48:42 21° 267° (W) 12:51:52 145.865
UKube-1 01 Jul 12:49:02 12:53:03 37° 289° (WNW) 12:57:01 .
VERMONT LUNAR 01 Jul 12:49:34 12:52:43 71° 188° (S) 12:55:54 437.305
DUCHIFAT 1 01 Jul 12:54:08 12:57:01 17° 268° (W) 12:59:46 145.980
SPROUT 01 Jul 12:54:36 12:57:57 22° 93° (E) 13:01:22 437.525
POLYITAN 1 01 Jul 12:54:41 12:57:28 16° 269° (W) 13:00:04 437.675
Cosmos 2499 01 Jul 13:00:20 13:07:02 43° 286° (WNW) 13:13:43 435.465 / 435.565
ESTCUBE 1 01 Jul 13:03:39 13:08:11 70° 285° (WNW) 13:12:41 437.505/2401.250
CUBEBUG 1 01 Jul 13:14:11 13:18:31 61° 286° (WNW) 13:22:48 437.445
Gurwin Techsat 1B 01 Jul 13:18:59 13:19:55 11° 58° (ENE) 13:21:10 435.225
HUMSAT D 01 Jul 13:25:56 13:27:30 12° 296° (WNW) 13:28:53 437.325/437.525
BUGSAT 1 01 Jul 13:28:59 13:30:15 11° 272° (W) 13:31:15 437.445
VELOX 1 01 Jul 13:36:03 13:39:29 22° 293° (WNW) 13:42:47 145.980
Oscar 19 01 Jul 13:37:38 13:42:34 51° 72° (ENE) 13:47:34 437.125/150
ITAMSAT 1 01 Jul 13:43:12 13:46:30 18° 63° (ENE) 13:49:58 435.822/435.867
ISS 01 Jul 13:43:26 13:45:08 13° 3° (N) 13:46:50 145.825
TISAT 1 01 Jul 13:49:57 13:54:07 62° 101° (ESE) 13:58:15 437.305
PHONESAT 2.4 01 Jul 13:53:07 13:56:35 79° 183° (S) 14:00:04 2401.200-2431.200
YUBILEINY 01 Jul 13:57:44 14:03:31 20° 60° (ENE) 14:09:43 435.215
RS-15 01 Jul 14:10:27 14:21:20 44° 250° (WSW) 14:32:20 29.354- 29.394
BEESAT 01 Jul 14:13:12 14:16:26 18° 91° (E) 14:19:49 436.000
AO-7 01 Jul 14:13:21 14:17:29 15° 47° (NE) 14:22:00 29.400- 29.500
Cosmos 2491 01 Jul 14:24:00 14:25:25 11° 75° (ENE) 14:27:37 435.465 / 435.565
VERMONT LUNAR 01 Jul 14:26:40 14:29:26 28° 203° (SSW) 14:32:14 437.305
SWISSCUBE 01 Jul 14:27:36 14:31:42 28° 95° (E) 14:35:50 437.505
SPROUT 01 Jul 14:30:18 14:34:06 31° 290° (WNW) 14:37:49 437.525
ITUPSAT 1 01 Jul 14:31:12 14:35:15 27° 95° (E) 14:39:23 437.325
JAS-2 01 Jul 14:53:41 14:57:13 19° 63° (ENE) 15:00:58 435.910
Gurwin Techsat 1B 01 Jul 14:53:48 14:59:06 77° 76° (ENE) 15:04:27 435.225
Oscar 19 01 Jul 15:18:34 15:22:17 19° 269° (W) 15:25:49 437.125/150
ISS 01 Jul 15:19:36 15:22:22 25° 22° (NNE) 15:25:08 145.825
ITAMSAT 1 01 Jul 15:20:22 15:25:33 63° 259° (WSW) 15:30:45 435.822/435.867
TISAT 1 01 Jul 15:27:38 15:29:25 12° 296° (WNW) 15:30:59 437.305
PHONESAT 2.4 01 Jul 15:31:10 15:34:29 43° 199° (SSW) 15:37:49 2401.200-2431.200
STARS 01 Jul 15:48:00 15:50:52 18° 92° (E) 15:53:53 437.465
BEESAT 01 Jul 15:49:57 15:54:34 47° 288° (WNW) 15:59:09 436.000
YUBILEINY 01 Jul 15:52:58 16:01:46 89° 264° (W) 16:10:34 435.215
AO-7 01 Jul 16:00:39 16:08:50 64° 67° (ENE) 16:17:06 29.400- 29.500
SWISSCUBE 01 Jul 16:05:17 16:09:34 31° 291° (WNW) 16:13:45 437.505
ITUPSAT 1 01 Jul 16:08:52 16:13:11 32° 291° (WNW) 16:17:24 437.325
PCSat 01 Jul 16:10:42 16:14:35 21° 108° (ESE) 16:18:39 145.827
Cosmos 2491 01 Jul 16:12:05 16:20:44 65° 93° (E) 16:29:27 435.465 / 435.565
HORYU 2 01 Jul 16:21:02 16:25:27 82° 73° (ENE) 16:29:53 437.375
KKS-1 01 Jul 16:22:35 16:27:01 70° 102° (ESE) 16:31:25 437.445
AIST 1 01 Jul 16:25:40 16:29:47 41° 93° (E) 16:33:58
BEESAT 3 01 Jul 16:25:46 16:28:17 16° 41° (NE) 16:30:53 437.485
BEESAT 2 01 Jul 16:33:08 16:35:35 15° 41° (NE) 16:38:07 435.950
Cosmos 2504 01 Jul 16:36:03 16:41:23 21° 65° (ENE) 16:47:16 435.465 / 435.565
JAS-2 01 Jul 16:36:58 16:42:00 51° 261° (W) 16:47:09 435.910
Gurwin Techsat 1B 01 Jul 16:37:12 16:39:48 13° 273° (W) 16:42:03 435.225
ISS 01 Jul 16:55:46 16:58:55 50° 220° (SW) 17:02:03 145.825
PHONESAT 2.4 01 Jul 17:10:33 17:12:01 12° 213° (SSW) 17:13:25 2401.200-2431.200
STARS 01 Jul 17:23:25 17:27:33 41° 288° (WNW) 17:31:38 437.465
SO-50 01 Jul 17:25:42 17:29:05 20° 111° (ESE) 17:32:41 436.795
AIST 2 01 Jul 17:29:08 17:31:42 16° 41° (NE) 17:34:22 435.215
CUTE-I 01 Jul 17:32:44 17:36:04 18° 62° (ENE) 17:39:36 437.470
O/OREOS (USA 219) 01 Jul 17:40:09 17:43:32 21° 55° (NE) 17:47:01 437.305
MOZHAYETS 4 01 Jul 17:51:51 17:56:30 65° 101° (E) 18:01:06
YUBILEINY 01 Jul 17:52:04 17:57:30 17° 281° (W) 18:02:25 435.215
PCSat 01 Jul 17:52:21 17:57:39 54° 304° (WNW) 18:02:59 145.827
AO-7 01 Jul 17:55:12 18:02:14 29° 267° (W) 18:09:06 29.400- 29.500
KKS-1 01 Jul 18:01:20 18:03:08 12° 297° (WNW) 18:04:45 437.445
BEESAT 3 01 Jul 18:02:39 18:06:39 60° 241° (WSW) 18:10:35 437.485
Cubesat XI-IV 01 Jul 18:04:17 18:08:58 33° 68° (ENE) 18:13:45 437.490
AIST 1 01 Jul 18:04:43 18:07:43 17° 291° (WNW) 18:10:33
BEESAT 2 01 Jul 18:10:02 18:14:06 65° 240° (WSW) 18:18:05 435.950
Cosmos 2491 01 Jul 18:10:53 18:18:22 29° 294° (WNW) 18:25:36 435.465 / 435.565
Cosmos 2504 01 Jul 18:28:01 18:35:40 78° 264° (W) 18:43:52 435.465 / 435.565
SO-50 01 Jul 19:04:40 19:09:18 50° 309° (NW) 19:14:04 436.795
AIST 2 01 Jul 19:06:35 19:10:46 67° 240° (WSW) 19:14:51 435.215
CUTE-I 01 Jul 19:10:20 19:15:40 66° 258° (WSW) 19:21:02 437.470
O/OREOS (USA 219) 01 Jul 19:18:54 19:23:10 41° 253° (WSW) 19:27:24 437.305
STRAND 1 01 Jul 19:23:04 19:26:20 17° 90° (E) 19:29:47 437.568
MOZHAYETS 4 01 Jul 19:30:45 19:33:14 14° 296° (WNW) 19:35:32
PCSat 01 Jul 19:40:43 19:42:25 11° 326° (NW) 19:43:54 145.827
Cubesat XI-IV 01 Jul 19:44:15 19:49:03 33° 264° (W) 19:53:51 437.490
CUBESAT XI-V 01 Jul 19:46:19 19:51:04 86° 104° (ESE) 19:55:43 437.345
PRISM 01 Jul 19:49:01 19:52:33 26° 95° (E) 19:56:06 437.425
HO-68 01 Jul 19:52:15 19:57:57 28° 61° (ENE) 20:03:49 435.675
CUSAT 1 01 Jul 19:56:04 19:58:46 48° 77° (ENE) 20:01:17 437.405
GOMX 1 01 Jul 19:57:06 20:01:19 26° 69° (ENE) 20:05:27 467.674
BRITE-PL 01 Jul 20:03:50 20:09:10 50° 73° (ENE) 20:14:15 437.365/2234.400
Cosmos 2504 01 Jul 20:24:37 20:28:07 13° 280° (W) 20:31:06 435.465 / 435.565
SEEDS 01 Jul 20:25:38 20:28:30 19° 67° (ENE) 20:31:30 437.485
GONETS M04 01 Jul 20:28:40 20:36:37 39° 71° (ENE) 20:44:39
CINEMA 3 01 Jul 20:30:51 20:33:20 15° 66° (ENE) 20:35:56 145.822/145.860
DANDE 01 Jul 20:37:30 20:40:29 56° 263° (W) 20:43:04 436.750
AAUSAT CUBESAT 2 01 Jul 20:44:44 20:47:45 20° 68° (ENE) 20:50:53 437.432
SO-50 01 Jul 20:49:58 20:51:06 11° 330° (NNW) 20:52:04 436.795
DOVE 4 01 Jul 20:56:11 21:01:05 61° 74° (ENE) 21:05:43 437.250
Cosmos 2499 01 Jul 20:59:57 21:01:51 11° 56° (ENE) 21:04:25 435.465 / 435.565
STRAND 1 01 Jul 21:00:55 21:05:58 56° 288° (WNW) 21:10:59 437.568
UWE-3 01 Jul 21:03:12 21:04:37 12° 65° (ENE) 21:06:13 435.000/436.395/437.385
CUTE 1.7 + AOD 2 01 Jul 21:06:21 21:10:31 65° 75° (ENE) 21:14:42 437.475
M-CUBED/EXP-1 PRIME 01 Jul 21:06:57 21:09:20 15° 97° (E) 21:11:59 437.505
COMPASS 1 01 Jul 21:07:00 21:10:53 41° 73° (ENE) 21:14:50 437.405
CANX-2 01 Jul 21:09:09 21:13:20 79° 76° (ENE) 21:17:34 2200.000
DELFI C3 01 Jul 21:22:55 21:25:25 17° 67° (ENE) 21:28:04 145.870
PRISM 01 Jul 21:24:23 21:27:56 26° 291° (WNW) 21:31:23 437.425
CUBESAT XI-V 01 Jul 21:26:31 21:27:51 11° 298° (WNW) 21:28:56 437.345
GOMX 1 01 Jul 21:34:25 21:39:19 38° 263° (W) 21:43:56 467.674
HO-68 01 Jul 21:38:12 21:45:16 61° 258° (WSW) 21:52:21 435.675
CUBEBUG 2 01 Jul 21:39:03 21:42:59 35° 72° (ENE) 21:46:53 437.445
BRITE-PL 01 Jul 21:43:36 21:47:54 22° 268° (W) 21:51:55 437.365/2234.400
DX 1 01 Jul 21:45:17 21:46:14 11° 62° (ENE) 21:47:26 434.975-435.025
ZACube-1 01 Jul 21:55:22 21:59:09 32° 71° (ENE) 22:02:54 437.345
SEEDS 01 Jul 22:00:11 22:04:04 36° 263° (W) 22:07:57 437.485
CINEMA 3 01 Jul 22:05:41 22:10:12 54° 260° (W) 22:14:33 145.822/145.860
UKube-1 01 Jul 22:09:00 22:11:50 18° 66° (ENE) 22:14:49 .
AUBIESAT-1 01 Jul 22:09:01 22:13:08 63° 106° (ESE) 22:17:33 437.475
AISAT 01 Jul 22:09:21 22:10:36 11° 62° (ENE) 22:12:05 437.250
Oscar 11 01 Jul 22:10:40 22:14:57 86° 79° (E) 22:19:17 145.826/435.025
AAUSAT CUBESAT 2 01 Jul 22:19:26 22:23:10 32° 264° (W) 22:26:55 437.432
GONETS M04 01 Jul 22:25:28 22:33:38 46° 271° (W) 22:41:40
ESTCUBE 1 01 Jul 22:29:43 22:31:12 12° 62° (ENE) 22:32:55 437.505/2401.250
FUNcube-1 01 Jul 22:32:26 22:36:40 84° 77° (ENE) 22:40:52 145.935
DOVE 4 01 Jul 22:36:23 22:39:12 15° 270° (W) 22:41:43 437.250
UWE-3 01 Jul 22:36:26 22:40:42 65° 259° (W) 22:44:54 435.000/436.395/437.385
CUBEBUG 1 01 Jul 22:37:08 22:38:30 11° 63° (ENE) 22:40:05 437.445
HUMSAT D 01 Jul 22:39:52 22:43:45 43° 73° (ENE) 22:47:40 437.325/437.525
M-CUBED/EXP-1 PRIME 01 Jul 22:40:22 22:44:21 50° 291° (WNW) 22:48:38 437.505
COMPASS 1 01 Jul 22:44:12 22:46:49 16° 269° (W) 22:49:16 437.405
CUTE 1.7 + AOD 2 01 Jul 22:46:15 22:46:57 10° 273° (W) 22:47:23 437.475
Cosmos 2499 01 Jul 22:49:08 22:56:48 64° 79° (ENE) 23:05:05 435.465 / 435.565
UNISAT 6 01 Jul 22:51:08 22:52:55 13° 89° (E) 22:54:59 437.425
DELFI C3 01 Jul 22:56:30 23:00:15 38° 263° (W) 23:04:01 145.870
VELOX 1 01 Jul 22:56:38 23:00:36 33° 70° (ENE) 23:04:38 145.980
CUBEBUG 2 01 Jul 23:16:36 23:19:49 19° 267° (W) 23:22:51 437.445
DX 1 01 Jul 23:17:32 23:21:55 79° 257° (WSW) 23:26:20 434.975-435.025
50 SAT 01 Jul 23:20:35 23:24:22 65° 76° (ENE) 23:28:11 437.505
ZACube-1 01 Jul 23:32:21 23:35:36 20° 267° (W) 23:38:42 437.345
ANTELSAT 01 Jul 23:33:48 23:37:50 37° 97° (E) 23:41:59 437.575/2403.000
QB50P2 01 Jul 23:33:57 23:36:20 15° 90° (E) 23:38:54 145.880/145.840
POPSAT HIP 1 01 Jul 23:35:29 23:37:52 15° 90° (E) 23:40:26 437.405
AISAT 01 Jul 23:42:08 23:46:37 78° 257° (WSW) 23:51:06 437.250
UKube-1 01 Jul 23:43:31 23:47:40 43° 261° (W) 23:51:50 .
AUBIESAT-1 01 Jul 23:45:23 23:47:33 14° 299° (WNW) 23:49:36 437.475
TIGRISAT 01 Jul 23:47:27 23:51:40 51° 100° (E) 23:56:00 435.000
SPROUT 01 Jul 23:49:18 23:52:16 19° 67° (ENE) 23:55:22 437.525
ESTCUBE 1 02 Jul 00:02:59 00:07:30 76° 258° (WSW) 00:12:04 437.505/2401.250
CUBEBUG 1 02 Jul 00:09:52 00:14:18 75° 258° (WSW) 00:18:46 437.445
QB50P1 02 Jul 00:13:40 00:17:39 41° 98° (E) 00:21:38 145.935-145.965
HUMSAT D 02 Jul 00:17:20 00:19:46 15° 270° (W) 00:22:02 437.325/437.525
UNISAT 6 02 Jul 00:25:51 00:30:08 58° 286° (WNW) 00:34:29 437.425
NANOSAT C BR1 02 Jul 00:28:59 00:33:10 61° 101° (E) 00:37:18 145.865
VELOX 1 02 Jul 00:33:36 00:37:13 23° 266° (W) 00:40:46 145.980
DUCHIFAT 1 02 Jul 00:37:00 00:41:12 75° 102° (ESE) 00:45:23 145.980
POLYITAN 1 02 Jul 00:38:06 00:42:19 81° 102° (ESE) 00:46:32 437.675
TISAT 1 02 Jul 00:41:53 00:45:56 46° 73° (ENE) 00:50:01 437.305
Cosmos 2499 02 Jul 00:43:17 00:49:31 26° 275° (W) 00:55:48 435.465 / 435.565
PCSat 02 Jul 00:57:33 01:01:32 21° 44° (NE) 01:05:37 145.827
BUGSAT 1 02 Jul 01:07:41 01:11:45 73° 285° (WNW) 01:15:46 437.445
QB50P2 02 Jul 01:08:29 01:12:31 44° 287° (WNW) 01:16:31 145.880/145.840
POPSAT HIP 1 02 Jul 01:10:01 01:14:02 44° 287° (WNW) 01:18:01 437.405
ANTELSAT 02 Jul 01:11:10 01:14:26 20° 292° (WNW) 01:17:38 437.575/2403.000
BEESAT 02 Jul 01:19:49 01:23:23 22° 66° (ENE) 01:27:06 436.000
SPROUT 02 Jul 01:24:02 01:28:06 39° 262° (W) 01:32:10 437.525
TIGRISAT 02 Jul 01:25:28 01:28:05 15° 294° (WNW) 01:30:36 435.000
SWISSCUBE 02 Jul 01:34:11 01:38:25 33° 69° (ENE) 01:42:42 437.505
ITUPSAT 1 02 Jul 01:38:02 01:42:14 32° 69° (ENE) 01:46:31 437.325
Oscar 19 02 Jul 01:50:10 01:53:28 18° 90° (E) 01:56:57 437.125/150
QB50P1 02 Jul 01:50:24 01:53:14 17° 294° (WNW) 01:55:56 145.935-145.965
SO-50 02 Jul 01:56:09 02:00:06 23° 42° (NE) 02:04:04 436.795
NANOSAT C BR1 02 Jul 02:06:44 02:08:32 12° 296° (WNW) 02:10:09 145.865
DUCHIFAT 1 02 Jul 02:15:47 02:16:28 10° 297° (WNW) 02:16:55 145.980
TISAT 1 02 Jul 02:19:26 02:21:59 15° 269° (W) 02:24:23 437.305
Cosmos 2491 02 Jul 02:22:53 02:30:23 32° 68° (ENE) 02:38:01 435.465 / 435.565
RS-15 02 Jul 02:22:55 02:32:01 34° 107° (ESE) 02:41:36 29.354- 29.394
AIST 1 02 Jul 02:35:00 02:36:07 11° 65° (ENE) 02:37:30
PCSat 02 Jul 02:40:07 02:45:31 69° 244° (WSW) 02:50:53 145.827
STARS 02 Jul 02:45:23 02:48:09 17° 65° (ENE) 02:51:03 437.465
BEESAT 02 Jul 02:56:31 03:01:00 41° 262° (W) 03:05:31 436.000
YUBILEINY 02 Jul 03:00:19 03:06:09 21° 81° (E) 03:12:24 435.215
Gurwin Techsat 1B 02 Jul 03:10:24 03:15:02 30° 95° (E) 03:19:42 435.225
SWISSCUBE 02 Jul 03:12:14 03:16:18 27° 266° (W) 03:20:18 437.505
ITUPSAT 1 02 Jul 03:16:04 03:20:09 27° 265° (W) 03:24:12 437.325
KKS-1 02 Jul 03:20:32 03:24:56 64° 74° (ENE) 03:29:22 437.445
Oscar 19 02 Jul 03:28:14 03:33:15 55° 287° (WNW) 03:38:13 437.125/150
ITAMSAT 1 02 Jul 03:33:15 03:38:16 46° 99° (E) 03:43:17 435.822/435.867
SO-50 02 Jul 03:36:09 03:41:00 55° 241° (WSW) 03:45:44 436.795
JAS-2 02 Jul 03:44:33 03:49:27 22° 92° (E) 03:54:58 435.910
AO-7 02 Jul 04:03:45 04:09:11 19° 89° (E) 04:15:01 29.400- 29.500
AIST 1 02 Jul 04:10:01 04:14:23 66° 265° (W) 04:18:39
HORYU 2 02 Jul 04:13:29 04:16:04 16° 91° (E) 04:18:51 437.375
Cosmos 2491 02 Jul 04:19:16 04:27:48 57° 269° (W) 04:36:11 435.465 / 435.565
STARS 02 Jul 04:20:01 04:24:16 47° 261° (W) 04:28:32 437.465
RS-15 02 Jul 04:32:48 04:43:40 68° 308° (NW) 04:54:56 29.354- 29.394
Gurwin Techsat 1B 02 Jul 04:50:14 04:55:03 35° 292° (WNW) 04:59:46 435.225
YUBILEINY 02 Jul 04:53:24 05:02:07 78° 279° (W) 05:10:52 435.215
MOZHAYETS 4 02 Jul 04:53:40 04:58:08 60° 74° (ENE) 05:02:42
KKS-1 02 Jul 05:00:17 05:02:05 12° 271° (W) 05:03:37 437.445
ITAMSAT 1 02 Jul 05:13:25 05:17:30 23° 295° (WNW) 05:21:27 435.822/435.867
Cosmos 2504 02 Jul 05:18:19 05:21:26 14° 80° (E) 05:24:58 435.465 / 435.565
JAS-2 02 Jul 05:28:31 05:34:55 67° 287° (WNW) 05:42:06 435.910
HORYU 2 02 Jul 05:48:44 05:53:02 49° 288° (WNW) 05:57:20 437.375
AO-7 02 Jul 05:54:41 06:03:07 86° 288° (WNW) 06:11:28 29.400- 29.500
Cubesat XI-IV 02 Jul 06:23:20 06:25:15 12° 87° (E) 06:27:29 437.490
MOZHAYETS 4 02 Jul 06:33:35 06:35:51 13° 272° (W) 06:37:54
STRAND 1 02 Jul 06:38:44 06:42:53 26° 66° (ENE) 06:47:10 437.568
PRISM 02 Jul 06:39:30 06:42:34 21° 67° (ENE) 06:45:43 437.425
CUBESAT XI-V 02 Jul 06:49:22 06:54:05 83° 76° (ENE) 06:58:49 437.345
RS-15 02 Jul 06:49:45 06:58:47 27° 338° (NNW) 07:07:56 29.354- 29.394
YUBILEINY 02 Jul 06:55:35 07:00:46 16° 303° (WNW) 07:05:26 435.215
Cosmos 2504 02 Jul 07:06:37 07:13:54 90° 108° (ESE) 07:21:06 435.465 / 435.565
JAS-2 02 Jul 07:16:47 07:19:13 12° 302° (WNW) 07:21:19 435.910
CUSAT 1 02 Jul 07:22:37 07:24:05 11° 90° (E) 07:25:55 437.405
